Retour au catalogue

COSMOS 1375 DEB

ActifLEO
NORAD 16377·DEBRIS·🇷🇺 Russia

Lancé Jun 6, 1982 depuis Plesetsk Cosmodrome

Loading…

Prochains Passages (prochaines 24 heures)

TLE

FraisSource: Space-Track

Époque: Sep 14, 2026, 01:17 UTC

1 16377U 82055R   26257.05370586  .00000741  00000-0  49257-3 0  9992
2 16377  65.8210 129.4834 0040085 331.1362 148.4131 14.06932476 79522

Suivez COSMOS 1375 DEB en temps réel avec AllMySat

Download on the App Store